TimeCDT,TemperatureF,Dew PointF,Humidity,Sea Level PressureIn,VisibilityMPH,Wind Direction,Wind SpeedMPH,Gust SpeedMPH,PrecipitationIn,Events,Conditions,WindDirDegrees,DateUTC
12:15 AM,41.0,37.4,87,29.78,10.0,WSW,8.1,-,N/A,,Clear,240,2014-05-10 05:15:00
12:35 AM,41.0,37.4,87,29.78,10.0,WSW,6.9,-,N/A,,Clear,250,2014-05-10 05:35:00
12:55 AM,41.0,37.4,87,29.78,10.0,WSW,6.9,-,N/A,,Clear,250,2014-05-10 05:55:00
1:15 AM,41.0,37.4,87,29.78,10.0,WSW,8.1,-,N/A,,Clear,250,2014-05-10 06:15:00
1:35 AM,41.0,37.4,87,29.78,10.0,WSW,6.9,-,N/A,,Clear,250,2014-05-10 06:35:00
1:55 AM,41.0,35.6,81,29.79,10.0,WSW,8.1,-,N/A,,Clear,250,2014-05-10 06:55:00
2:15 AM,41.0,35.6,81,29.79,10.0,West,6.9,-,N/A,,Clear,260,2014-05-10 07:15:00
2:35 AM,41.0,35.6,81,29.80,10.0,WSW,5.8,-,N/A,,Clear,250,2014-05-10 07:35:00
2:55 AM,37.4,33.8,87,29.80,10.0,SW,8.1,-,N/A,,Clear,230,2014-05-10 07:55:00
3:15 AM,37.4,35.6,93,29.81,10.0,WSW,8.1,-,N/A,,Clear,240,2014-05-10 08:15:00
3:35 AM,37.4,35.6,93,29.81,10.0,WSW,9.2,-,N/A,,Clear,240,2014-05-10 08:35:00
3:55 AM,39.2,35.6,87,29.82,10.0,West,6.9,-,N/A,,Clear,260,2014-05-10 08:55:00
4:15 AM,39.2,33.8,81,29.83,10.0,WSW,6.9,-,N/A,,Clear,250,2014-05-10 09:15:00
4:35 AM,37.4,33.8,87,29.84,10.0,WSW,6.9,-,N/A,,Clear,250,2014-05-10 09:35:00
4:55 AM,37.4,33.8,87,29.84,10.0,WSW,4.6,-,N/A,,Clear,250,2014-05-10 09:55:00
5:15 AM,35.6,33.8,93,29.85,10.0,Calm,Calm,-,N/A,,Clear,0,2014-05-10 10:15:00
5:35 AM,35.6,33.8,93,29.85,10.0,Calm,Calm,-,N/A,,Clear,0,2014-05-10 10:35:00
5:55 AM,35.6,33.8,93,29.86,10.0,Calm,Calm,-,N/A,,Clear,0,2014-05-10 10:55:00
6:15 AM,35.6,33.8,93,29.86,10.0,WSW,3.5,-,N/A,,Clear,240,2014-05-10 11:15:00
6:35 AM,37.4,33.8,87,29.87,10.0,Calm,Calm,-,N/A,,Clear,0,2014-05-10 11:35:00
6:55 AM,41.0,35.6,81,29.87,10.0,West,4.6,-,N/A,,Clear,260,2014-05-10 11:55:00
7:15 AM,42.8,37.4,81,29.88,10.0,Calm,Calm,-,N/A,,Clear,0,2014-05-10 12:15:00
7:35 AM,44.6,37.4,76,29.89,10.0,West,3.5,-,N/A,,Clear,280,2014-05-10 12:35:00
7:55 AM,46.4,37.4,71,29.89,10.0,WSW,4.6,-,N/A,,Clear,250,2014-05-10 12:55:00
8:15 AM,48.2,37.4,66,29.89,10.0,West,5.8,-,N/A,,Clear,260,2014-05-10 13:15:00
8:35 AM,50.0,37.4,62,29.89,10.0,Calm,Calm,-,N/A,,Clear,0,2014-05-10 13:35:00
8:55 AM,51.8,37.4,58,29.89,10.0,West,3.5,-,N/A,,Clear,280,2014-05-10 13:55:00
9:15 AM,53.6,35.6,51,29.90,10.0,SSW,3.5,-,N/A,,Clear,210,2014-05-10 14:15:00
9:35 AM,53.6,35.6,51,29.90,10.0,Calm,Calm,-,N/A,,Clear,0,2014-05-10 14:35:00
9:55 AM,55.4,33.8,44,29.90,10.0,Calm,Calm,-,N/A,,Clear,0,2014-05-10 14:55:00
10:15 AM,55.4,33.8,44,29.90,10.0,South,4.6,-,N/A,,Clear,180,2014-05-10 15:15:00
10:55 AM,57.2,32.0,38,29.89,10.0,Calm,Calm,-,N/A,,Clear,0,2014-05-10 15:55:00
11:15 AM,57.2,32.0,38,29.89,10.0,Calm,Calm,-,N/A,,Clear,0,2014-05-10 16:15:00
11:35 AM,59.0,30.2,34,29.89,10.0,SSW,3.5,-,N/A,,Clear,210,2014-05-10 16:35:00
11:55 AM,59.0,30.2,34,29.89,10.0,SSW,5.8,-,N/A,,Clear,210,2014-05-10 16:55:00
12:15 PM,59.0,30.2,34,29.88,10.0,SSW,5.8,-,N/A,,Clear,200,2014-05-10 17:15:00
12:35 PM,60.8,32.0,34,29.88,10.0,SSE,4.6,-,N/A,,Clear,160,2014-05-10 17:35:00
12:55 PM,60.8,30.2,31,29.88,10.0,SSE,8.1,-,N/A,,Clear,160,2014-05-10 17:55:00
1:15 PM,62.6,30.2,30,29.87,10.0,SSE,6.9,-,N/A,,Clear,150,2014-05-10 18:15:00
1:35 PM,62.6,32.0,32,29.87,10.0,SE,4.6,-,N/A,,Clear,140,2014-05-10 18:35:00
1:55 PM,64.4,32.0,30,29.86,10.0,SSE,5.8,-,N/A,,Clear,160,2014-05-10 18:55:00
2:15 PM,64.4,30.2,28,29.86,10.0,SE,8.1,-,N/A,,Clear,140,2014-05-10 19:15:00
2:35 PM,64.4,32.0,30,29.85,7.0,SE,11.5,-,N/A,,Clear,140,2014-05-10 19:35:00
2:55 PM,66.2,30.2,26,29.85,10.0,SE,10.4,-,N/A,,Clear,130,2014-05-10 19:55:00
3:15 PM,68.0,32.0,26,29.85,10.0,SSE,11.5,20.7,N/A,,Clear,150,2014-05-10 20:15:00
3:35 PM,68.0,30.2,24,29.84,10.0,South,10.4,16.1,N/A,,Clear,170,2014-05-10 20:35:00
3:55 PM,68.0,32.0,26,29.84,10.0,SSE,10.4,17.3,N/A,,Scattered Clouds,160,2014-05-10 20:55:00
4:15 PM,66.2,32.0,28,29.84,10.0,South,9.2,-,N/A,,Scattered Clouds,190,2014-05-10 21:15:00
4:35 PM,64.4,33.8,32,29.84,10.0,South,9.2,-,N/A,,Mostly Cloudy,180,2014-05-10 21:35:00
4:55 PM,66.2,33.8,30,29.84,10.0,South,9.2,-,N/A,,Overcast,180,2014-05-10 21:55:00
5:15 PM,66.2,35.6,32,29.84,10.0,South,11.5,-,N/A,,Mostly Cloudy,170,2014-05-10 22:15:00
5:35 PM,68.0,35.6,30,29.83,10.0,South,12.7,17.3,N/A,,Scattered Clouds,170,2014-05-10 22:35:00
5:55 PM,64.4,39.2,40,29.83,10.0,South,12.7,-,N/A,,Clear,180,2014-05-10 22:55:00
6:35 PM,62.6,42.8,48,29.83,10.0,South,6.9,-,N/A,,Mostly Cloudy,180,2014-05-10 23:35:00
6:55 PM,62.6,42.8,48,29.83,10.0,SSE,5.8,-,N/A,,Overcast,150,2014-05-10 23:55:00
7:15 PM,62.6,41.0,45,29.82,10.0,SSE,8.1,-,N/A,,Scattered Clouds,150,2014-05-11 00:15:00
7:35 PM,62.6,42.8,48,29.83,10.0,South,9.2,-,N/A,,Clear,170,2014-05-11 00:35:00
7:55 PM,60.8,44.6,55,29.83,10.0,South,11.5,-,N/A,,Clear,170,2014-05-11 00:55:00
8:15 PM,59.0,44.6,59,29.84,10.0,South,11.5,-,N/A,,Mostly Cloudy,180,2014-05-11 01:15:00
8:35 PM,59.0,46.4,63,29.85,10.0,South,9.2,-,N/A,,Overcast,170,2014-05-11 01:35:00
8:55 PM,57.2,46.4,67,29.85,10.0,SSE,8.1,-,N/A,,Overcast,160,2014-05-11 01:55:00
9:15 PM,57.2,46.4,67,29.85,10.0,SSE,6.9,-,N/A,,Scattered Clouds,150,2014-05-11 02:15:00
9:35 PM,57.2,46.4,67,29.86,10.0,SSE,8.1,-,N/A,,Mostly Cloudy,160,2014-05-11 02:35:00
9:55 PM,55.4,46.4,72,29.87,10.0,SSE,6.9,-,N/A,,Overcast,150,2014-05-11 02:55:00
10:15 PM,55.4,48.2,77,29.88,10.0,South,4.6,-,N/A,Rain,Light Rain,180,2014-05-11 03:15:00
10:35 PM,53.6,48.2,82,29.89,10.0,South,8.1,-,N/A,,Overcast,190,2014-05-11 03:35:00
10:55 PM,55.4,48.2,77,29.89,10.0,South,10.4,-,N/A,Rain,Light Rain,170,2014-05-11 03:55:00
11:15 PM,53.6,48.2,82,29.89,10.0,SSE,8.1,-,N/A,Rain,Light Rain,160,2014-05-11 04:15:00
11:35 PM,53.6,50.0,88,29.89,10.0,South,9.2,-,N/A,,Light Drizzle,170,2014-05-11 04:35:00
11:55 PM,51.8,50.0,94,29.88,10.0,SE,5.8,-,N/A,,Overcast,140,2014-05-11 04:55:00